Location: Napa Junction
(38.1874°N, 122.2508°W)
Time: 14:46:17
(UTC+00:00)

COSMOS 2455 - Pass Details

Date: 08 September 2024
Orbit: 898 x 910 km, 67.1° (Epoch: 08 October)

Event Time Altitude Azimuth Distance (km) Brightness Sun altitude
Exits shadow 12:37:30 19° 243° (WSW) 2,020 4.0 -13.8°
Maximum altitude 12:41:25 42° 304° (NW) 1,283 3.4 -13.1°
Drops below altitude 10° 12:47:06 10° 15° (NNE) 2,601 5.7 -12.0°
Sets 12:49:47 0° 22° (NNE) 3,547 6.5 -11.5°
